QPF
0.02 0.04 0.05 0.05 0.06 0.07 0.07 0.06 0.07 0.05 0.02 0.01 0.02 0.02 0.02 0.02 0.03 0.02 0.02 0.02 0.02 0.02 0.01 0.01 0.01 0.02 0.02 0.02 0.02 0.01 0.01 0.01 0.01 0.01 0.01 0.00 0.00 0.01 0.00 0.00 0.00 0.00 0.00
0.01 0.03 0.04 0.04 0.04 0.05 0.06 0.07 0.06 0.05 0.04 0.02 0.02 0.02 0.02 0.01 0.02 0.01 0.01 0.01 0.02 0.02 0.01 0.01 0.01 0.01 0.01 0.02 0.01 0.01 0.01 0.02 0.01 0.01 0.01 0.01 0.01 0.01 0.00 0.01 0.00 0.00 0.00
0.01 0.01 0.03 0.03 0.03 0.04 0.04 0.05 0.06 0.05 0.06 0.04 0.02 0.02 0.02 0.01 0.01 0.01 0.01 0.01 0.01 0.01 0.02 0.02 0.02 0.01 0.01 0.02 0.01 0.02 0.02 0.02 0.01 0.01 0.01 0.01 0.01 0.00 0.00 0.00 0.00 0.01 0.00
0.01 0.02 0.02 0.03 0.03 0.03 0.03 0.03 0.04 0.04 0.05 0.05 0.02 0.02 0.02 0.02 0.02 0.02 0.01 0.01 0.01 0.01 0.02 0.02 0.02 0.02 0.02 0.02 0.02 0.02 0.02 0.02 0.02 0.01 0.01 0.01 0.00 0.00 0.01 0.00 0.00 0.00 0.00
0.01 0.01 0.01 0.02 0.02 0.03 0.03 0.02 0.03 0.04 0.04 0.05 0.04 0.03 0.02 0.02 0.02 0.02 0.02 0.01 0.01 0.01 0.01 0.01 0.02 0.02 0.02 0.02 0.02 0.01 0.01 0.01 0.01 0.02 0.01 0.01 0.01 0.01 0.01 0.01 0.00 0.00 0.00
0.00 0.00 0.00 0.01 0.01 0.02 0.02 0.02 0.02 0.03 0.04 0.05 0.06 0.05 0.04 0.03 0.03 0.02 0.02 0.02 0.01 0.01 0.01 0.01 0.01 0.01 0.01 0.02 0.01 0.01 0.01 0.01 0.01 0.01 0.01 0.01 0.01 0.01 0.01 0.01 0.00 0.00 0.00
0.00 0.00 0.01 0.01 0.01 0.01 0.01 0.01 0.01 0.01 0.02 0.03 0.05 0.05 0.05 0.04 0.05 0.04 0.03 0.02 0.02 0.02 0.02 0.02 0.01 0.01 0.01 0.01 0.01 0.01 0.01 0.01 0.01 0.01 0.01 0.02 0.02 0.02 0.02 0.01 0.00 0.00 0.00
0.01 0.01 0.01 0.01 0.01 0.01 0.01 0.01 0.01 0.01 0.02 0.02 0.03 0.04 0.04 0.04 0.05 0.04 0.05 0.04 0.03 0.02 0.02 0.02 0.01 0.01 0.01 0.01 0.01 0.01 0.01 0.01 0.00 0.00 0.01 0.02 0.03 0.03 0.03 0.02 0.01 0.01 0.01
0.02 0.02 0.02 0.02 0.01 0.01 0.01 0.01 0.01 0.02 0.02 0.03 0.03 0.04 0.03 0.03 0.03 0.03 0.03 0.03 0.04 0.03 0.03 0.02 0.02 0.01 0.01 0.01 0.01 0.00 0.00 0.00 0.00 0.00 0.01 0.01 0.03 0.03 0.04 0.03 0.02 0.01 0.01
0.02 0.02 0.02 0.02 0.01 0.01 0.01 0.01 0.01 0.02 0.02 0.02 0.02 0.03 0.03 0.02 0.02 0.02 0.03 0.02 0.03 0.03 0.03 0.03 0.03 0.02 0.02 0.02 0.01 0.00 0.00 0.00 0.00 0.00 0.00 0.01 0.01 0.02 0.02 0.03 0.03 0.03 0.02
0.01 0.01 0.01 0.02 0.02 0.02 0.03 0.02 0.01 0.01 0.01 0.02 0.02 0.02 0.02 0.02 0.03 0.03 0.02 0.02 0.02 0.02 0.03 0.03 0.03 0.03 0.03 0.03 0.02 0.01 0.01 0.01 0.00 0.00 0.00 0.01 0.01 0.01 0.02 0.02 0.02 0.02 0.02
0.01 0.01 0.01 0.02 0.02 0.03 0.04 0.04 0.03 0.02 0.02 0.02 0.02 0.02 0.02 0.02 0.02 0.02 0.02 0.02 0.02 0.02 0.03 0.03 0.04 0.04 0.04 0.03 0.03 0.02 0.02 0.02 0.01 0.01 0.01 0.00 0.01 0.01 0.02 0.02 0.02 0.02 0.02
0.01 0.01 0.01 0.01 0.01 0.02 0.02 0.02 0.03 0.03 0.02 0.02 0.03 0.03 0.03 0.02 0.02 0.02 0.02 0.02 0.01 0.01 0.02 0.03 0.03 0.03 0.04 0.04 0.04 0.04 0.04 0.03 0.03 0.02 0.02 0.02 0.01 0.01 0.02 0.01 0.01 0.01 0.02
0.01 0.01 0.01 0.01 0.01 0.01 0.01 0.01 0.01 0.02 0.02 0.02 0.02 0.03 0.03 0.03 0.02 0.02 0.02 0.02 0.02 0.01 0.01 0.01 0.01 0.01 0.02 0.02 0.03 0.03 0.04 0.04 0.04 0.03 0.03 0.02 0.01 0.02 0.02 0.02 0.03 0.02 0.02
0.00 0.01 0.01 0.01 0.01 0.01 0.01 0.01 0.01 0.01 0.01 0.01 0.01 0.02 0.02 0.02 0.02 0.03 0.03 0.02 0.02 0.01 0.01 0.01 0.01 0.01 0.01 0.01 0.01 0.02 0.03 0.04 0.04 0.03 0.03 0.02 0.02 0.02 0.02 0.02 0.02 0.02 0.02
0.01 0.01 0.01 0.01 0.01 0.01 0.01 0.01 0.01 0.01 0.01 0.01 0.01 0.01 0.01 0.02 0.02 0.02 0.02 0.02 0.02 0.01 0.01 0.01 0.01 0.01 0.01 0.01 0.01 0.01 0.02 0.02 0.03 0.04 0.04 0.03 0.02 0.03 0.02 0.01 0.01 0.02 0.02
0.01 0.01 0.01 0.01 0.01 0.01 0.01 0.01 0.01 0.01 0.02 0.01 0.01 0.01 0.01 0.02 0.02 0.02 0.02 0.02 0.02 0.01 0.01 0.01 0.01 0.01 0.01 0.02 0.02 0.02 0.02 0.02 0.02 0.03 0.04 0.04 0.04 0.03 0.02 0.02 0.02 0.02 0.02
0.00 0.00 0.01 0.01 0.02 0.01 0.01 0.01 0.01 0.01 0.01 0.01 0.01 0.02 0.02 0.02 0.02 0.02 0.02 0.02 0.01 0.01 0.01 0.00 0.01 0.01 0.01 0.02 0.02 0.02 0.02 0.02 0.02 0.03 0.03 0.03 0.03 0.03 0.03 0.03 0.03 0.02 0.02
0.00 0.00 0.00 0.00 0.01 0.02 0.02 0.02 0.01 0.01 0.01 0.01 0.01 0.02 0.02 0.02 0.02 0.02 0.02 0.01 0.01 0.01 0.01 0.01 0.01 0.01 0.02 0.02 0.02 0.02 0.01 0.01 0.01 0.02 0.02 0.03 0.04 0.05 0.03 0.02 0.02 0.02 0.02
0.00 0.00 0.00 0.00 0.00 0.01 0.02 0.03 0.03 0.03 0.02 0.02 0.02 0.03 0.03 0.04 0.03 0.03 0.03 0.02 0.02 0.01 0.01 0.01 0.01 0.01 0.01 0.02 0.02 0.02 0.02 0.02 0.01 0.01 0.01 0.02 0.03 0.03 0.04 0.04 0.03 0.03 0.03
0.00 0.00 0.00 0.00 0.00 0.00 0.00 0.01 0.01 0.02 0.02 0.02 0.02 0.02 0.02 0.02 0.03 0.03 0.03 0.03 0.02 0.02 0.02 0.02 0.02 0.01 0.01 0.02 0.02 0.02 0.02 0.02 0.02 0.02 0.02 0.02 0.02 0.02 0.02 0.03 0.04 0.05 0.04
0.00 0.00 0.00 0.00 0.00 0.00 0.01 0.01 0.01 0.01 0.01 0.01 0.01 0.01 0.01 0.01 0.01 0.02 0.02 0.02 0.01 0.01 0.01 0.01 0.01 0.01 0.02 0.02 0.02 0.02 0.03 0.03 0.02 0.02 0.02 0.03 0.03 0.03 0.02 0.03 0.03 0.03 0.04
0.00 0.00 0.00 0.00 0.00 0.00 0.01 0.01 0.01 0.01 0.01 0.01 0.01 0.01 0.01 0.01 0.01 0.02 0.02 0.02 0.01 0.02 0.02 0.01 0.01 0.02 0.02 0.02 0.03 0.03 0.03 0.03 0.03 0.03 0.03 0.04 0.04 0.04 0.04 0.03 0.03 0.03 0.02
0.01 0.01 0.01 0.01 0.01 0.01 0.01 0.01 0.01 0.01 0.01 0.02 0.02 0.02 0.02 0.02 0.02 0.02 0.02 0.02 0.02 0.01 0.01 0.01 0.01 0.02 0.02 0.02 0.03 0.03 0.02 0.03 0.04 0.05 0.05 0.06 0.06 0.05 0.06 0.05 0.04 0.03 0.02
0.01 0.01 0.01 0.01 0.01 0.01 0.01 0.01 0.01 0.01 0.01 0.02 0.02 0.02 0.02 0.02 0.02 0.02 0.02 0.02 0.02 0.02 0.01 0.01 0.02 0.02 0.02 0.02 0.02 0.02 0.03 0.03 0.04 0.05 0.06 0.07 0.07 0.06 0.06 0.06 0.05 0.03 0.03
0.01 0.01 0.01 0.01 0.01 0.01 0.01 0.01 0.01 0.01 0.01 0.01 0.01 0.01 0.01 0.02 0.02 0.02 0.02 0.02 0.02 0.02 0.02 0.02 0.02 0.03 0.03 0.03 0.02 0.02 0.03 0.03 0.03 0.04 0.04 0.05 0.06 0.06 0.05 0.05 0.04 0.04 0.03
MSLP
1014.55 1015.21 1015.89 1016.56 1017.15 1017.62 1017.97 1018.20 1018.36 1018.47 1018.59 1018.75 1018.96 1019.21 1019.50 1019.80 1020.09 1020.35 1020.58 1020.78 1020.98 1021.20 1021.45 1021.75 1022.12 1022.54 1023.02 1023.53 1024.05 1024.57 1025.06 1025.52 1025.92 1026.26 1026.53 1026.71 1026.81 1026.82 1026.75 1026.63 1026.46 1026.29 1026.13
1014.13 1014.80 1015.51 1016.19 1016.80 1017.31 1017.70 1017.99 1018.19 1018.35 1018.51 1018.69 1018.90 1019.16 1019.45 1019.75 1020.05 1020.33 1020.58 1020.81 1021.03 1021.26 1021.50 1021.77 1022.09 1022.45 1022.85 1023.29 1023.76 1024.24 1024.73 1025.22 1025.68 1026.10 1026.47 1026.76 1026.97 1027.08 1027.11 1027.06 1026.95 1026.81 1026.66
1013.71 1014.40 1015.12 1015.80 1016.42 1016.95 1017.37 1017.70 1017.95 1018.16 1018.35 1018.56 1018.79 1019.06 1019.35 1019.65 1019.96 1020.25 1020.53 1020.78 1021.02 1021.26 1021.50 1021.76 1022.05 1022.36 1022.71 1023.09 1023.51 1023.95 1024.42 1024.91 1025.41 1025.89 1026.33 1026.71 1027.02 1027.24 1027.36 1027.39 1027.35 1027.25 1027.14
1013.25 1013.96 1014.68 1015.37 1015.99 1016.53 1016.98 1017.34 1017.64 1017.90 1018.14 1018.39 1018.65 1018.93 1019.22 1019.52 1019.83 1020.13 1020.41 1020.68 1020.95 1021.20 1021.46 1021.72 1021.99 1022.28 1022.58 1022.92 1023.28 1023.69 1024.12 1024.60 1025.09 1025.60 1026.09 1026.53 1026.92 1027.22 1027.43 1027.54 1027.58 1027.54 1027.47
1012.72 1013.44 1014.16 1014.85 1015.47 1016.02 1016.50 1016.91 1017.27 1017.59 1017.89 1018.18 1018.48 1018.77 1019.07 1019.37 1019.67 1019.96 1020.25 1020.53 1020.80 1021.08 1021.35 1021.62 1021.89 1022.17 1022.45 1022.74 1023.06 1023.42 1023.81 1024.25 1024.72 1025.21 1025.72 1026.20 1026.63 1027.00 1027.28 1027.47 1027.58 1027.61 1027.59
1012.06 1012.81 1013.54 1014.23 1014.86 1015.43 1015.95 1016.42 1016.84 1017.23 1017.60 1017.95 1018.28 1018.60 1018.90 1019.19 1019.47 1019.75 1020.02 1020.30 1020.59 1020.87 1021.16 1021.45 1021.73 1022.00 1022.26 1022.53 1022.81 1023.12 1023.46 1023.85 1024.27 1024.73 1025.22 1025.70 1026.16 1026.56 1026.90 1027.16 1027.34 1027.44 1027.47
1011.29 1012.06 1012.80 1013.50 1014.15 1014.76 1015.32 1015.85 1016.34 1016.81 1017.25 1017.66 1018.03 1018.37 1018.67 1018.95 1019.21 1019.46 1019.72 1019.98 1020.26 1020.56 1020.86 1021.17 1021.46 1021.74 1022.01 1022.26 1022.51 1022.77 1023.06 1023.39 1023.75 1024.17 1024.61 1025.07 1025.53 1025.95 1026.33 1026.64 1026.87 1027.03 1027.12
1010.40 1011.20 1011.96 1012.67 1013.35 1013.99 1014.61 1015.20 1015.77 1016.31 1016.81 1017.27 1017.67 1018.03 1018.33 1018.59 1018.82 1019.05 1019.28 1019.53 1019.81 1020.11 1020.43 1020.75 1021.07 1021.37 1021.64 1021.89 1022.12 1022.35 1022.59 1022.87 1023.18 1023.53 1023.93 1024.35 1024.79 1025.21 1025.61 1025.95 1026.24 1026.45 1026.60
1009.42 1010.24 1011.02 1011.76 1012.47 1013.15 1013.82 1014.47 1015.09 1015.69 1016.24 1016.74 1017.16 1017.52 1017.81 1018.05 1018.26 1018.45 1018.66 1018.90 1019.18 1019.49 1019.83 1020.18 1020.53 1020.86 1021.15 1021.41 1021.63 1021.85 1022.06 1022.29 1022.55 1022.86 1023.21 1023.60 1024.01 1024.42 1024.82 1025.18 1025.50 1025.76 1025.95
1008.40 1009.23 1010.03 1010.79 1011.53 1012.24 1012.95 1013.64 1014.30 1014.93 1015.51 1016.02 1016.45 1016.80 1017.08 1017.29 1017.48 1017.66 1017.86 1018.10 1018.38 1018.72 1019.08 1019.47 1019.85 1020.21 1020.53 1020.81 1021.04 1021.25 1021.45 1021.66 1021.89 1022.16 1022.47 1022.83 1023.21 1023.61 1024.00 1024.38 1024.71 1025.00 1025.23
1007.36 1008.20 1009.00 1009.78 1010.53 1011.27 1012.00 1012.71 1013.39 1014.03 1014.61 1015.12 1015.53 1015.86 1016.12 1016.32 1016.50 1016.67 1016.88 1017.13 1017.44 1017.80 1018.21 1018.63 1019.05 1019.44 1019.79 1020.09 1020.34 1020.56 1020.76 1020.96 1021.18 1021.43 1021.72 1022.05 1022.41 1022.79 1023.17 1023.54 1023.89 1024.19 1024.45
1006.32 1007.15 1007.95 1008.73 1009.49 1010.24 1010.97 1011.68 1012.36 1012.99 1013.55 1014.03 1014.42 1014.73 1014.97 1015.17 1015.35 1015.54 1015.77 1016.06 1016.40 1016.81 1017.25 1017.71 1018.16 1018.58 1018.96 1019.28 1019.55 1019.78 1019.98 1020.18 1020.40 1020.64 1020.91 1021.23 1021.57 1021.93 1022.30 1022.67 1023.01 1023.31 1023.58
1005.29 1006.09 1006.88 1007.65 1008.41 1009.15 1009.87 1010.56 1011.22 1011.82 1012.35 1012.80 1013.16 1013.46 1013.69 1013.90 1014.10 1014.33 1014.60 1014.93 1015.33 1015.78 1016.26 1016.75 1017.23 1017.67 1018.06 1018.39 1018.66 1018.90 1019.10 1019.30 1019.52 1019.76 1020.03 1020.33 1020.66 1021.01 1021.36 1021.70 1022.03 1022.32 1022.58
1004.25 1005.01 1005.77 1006.51 1007.25 1007.97 1008.68 1009.35 1009.97 1010.54 1011.04 1011.46 1011.81 1012.10 1012.35 1012.58 1012.82 1013.10 1013.43 1013.82 1014.27 1014.77 1015.28 1015.79 1016.28 1016.72 1017.10 1017.42 1017.68 1017.91 1018.11 1018.31 1018.52 1018.76 1019.02 1019.32 1019.64 1019.97 1020.30 1020.61 1020.92 1021.19 1021.44
1003.17 1003.87 1004.59 1005.30 1006.01 1006.71 1007.39 1008.04 1008.64 1009.18 1009.65 1010.06 1010.40 1010.70 1010.98 1011.26 1011.56 1011.90 1012.29 1012.75 1013.25 1013.77 1014.31 1014.83 1015.30 1015.72 1016.08 1016.37 1016.60 1016.81 1016.99 1017.18 1017.39 1017.62 1017.89 1018.17 1018.48 1018.79 1019.10 1019.39 1019.66 1019.91 1020.13
1002.04 1002.67 1003.32 1003.99 1004.67 1005.34 1005.99 1006.61 1007.20 1007.72 1008.19 1008.60 1008.96 1009.29 1009.62 1009.95 1010.31 1010.72 1011.18 1011.69 1012.23 1012.78 1013.32 1013.82 1014.27 1014.65 1014.96 1015.21 1015.41 1015.58 1015.75 1015.92 1016.12 1016.35 1016.62 1016.90 1017.20 1017.50 1017.78 1018.05 1018.30 1018.52 1018.72
1000.85 1001.40 1001.98 1002.59 1003.22 1003.86 1004.49 1005.09 1005.66 1006.18 1006.65 1007.08 1007.48 1007.85 1008.23 1008.63 1009.06 1009.53 1010.05 1010.60 1011.16 1011.72 1012.25 1012.72 1013.13 1013.47 1013.73 1013.93 1014.10 1014.24 1014.39 1014.56 1014.76 1014.99 1015.26 1015.55 1015.84 1016.13 1016.41 1016.66 1016.88 1017.08 1017.25
999.66 1000.11 1000.61 1001.15 1001.72 1002.31 1002.90 1003.48 1004.04 1004.56 1005.05 1005.51 1005.94 1006.37 1006.80 1007.26 1007.75 1008.28 1008.83 1009.41 1009.98 1010.53 1011.04 1011.48 1011.85 1012.14 1012.36 1012.53 1012.67 1012.80 1012.94 1013.12 1013.33 1013.58 1013.86 1014.16 1014.47 1014.76 1015.03 1015.28 1015.49 1015.67 1015.83
998.55 998.88 999.28 999.73 1000.22 1000.74 1001.29 1001.83 1002.37 1002.89 1003.39 1003.87 1004.35 1004.82 1005.30 1005.81 1006.35 1006.91 1007.49 1008.08 1008.65 1009.18 1009.66 1010.06 1010.40 1010.66 1010.86 1011.01 1011.15 1011.29 1011.45 1011.64 1011.88 1012.16 1012.47 1012.80 1013.13 1013.43 1013.72 1013.96 1014.17 1014.35 1014.51
997.61 997.82 998.10 998.43 998.83 999.27 999.74 1000.24 1000.74 1001.24 1001.74 1002.24 1002.74 1003.24 1003.76 1004.30 1004.86 1005.44 1006.03 1006.61 1007.16 1007.67 1008.12 1008.50 1008.81 1009.06 1009.26 1009.42 1009.58 1009.75 1009.95 1010.19 1010.47 1010.79 1011.14 1011.50 1011.85 1012.18 1012.48 1012.74 1012.96 1013.15 1013.32
996.96 997.04 997.18 997.39 997.67 998.01 998.39 998.81 999.25 999.72 1000.20 1000.69 1001.19 1001.71 1002.25 1002.80 1003.36 1003.94 1004.51 1005.07 1005.60 1006.08 1006.50 1006.87 1007.17 1007.42 1007.64 1007.83 1008.03 1008.25 1008.50 1008.79 1009.13 1009.49 1009.88 1010.28 1010.66 1011.01 1011.33 1011.60 1011.83 1012.03 1012.21
996.68 996.63 996.65 996.72 996.87 997.08 997.35 997.67 998.04 998.45 998.88 999.35 999.83 1000.34 1000.87 1001.41 1001.96 1002.51 1003.06 1003.58 1004.08 1004.53 1004.93 1005.28 1005.59 1005.85 1006.10 1006.34 1006.58 1006.85 1007.16 1007.50 1007.88 1008.29 1008.70 1009.12 1009.52 1009.88 1010.21 1010.49 1010.73 1010.94 1011.13
996.83 996.67 996.56 996.50 996.51 996.59 996.74 996.96 997.23 997.57 997.94 998.35 998.80 999.28 999.77 1000.28 1000.80 1001.31 1001.82 1002.30 1002.75 1003.17 1003.55 1003.89 1004.20 1004.48 1004.75 1005.03 1005.32 1005.63 1005.98 1006.35 1006.75 1007.17 1007.60 1008.01 1008.40 1008.76 1009.08 1009.36 1009.60 1009.81 1010.00
997.39 997.13 996.91 996.74 996.63 996.59 996.63 996.73 996.91 997.16 997.46 997.81 998.21 998.64 999.08 999.54 1000.01 1000.48 1000.93 1001.36 1001.77 1002.14 1002.49 1002.82 1003.12 1003.41 1003.69 1003.99 1004.30 1004.63 1004.98 1005.36 1005.75 1006.15 1006.55 1006.93 1007.29 1007.61 1007.90 1008.16 1008.38 1008.58 1008.76
998.25 997.93 997.64 997.38 997.18 997.05 996.98 997.00 997.09 997.25 997.48 997.77 998.10 998.46 998.85 999.26 999.66 1000.07 1000.46 1000.83 1001.19 1001.52 1001.83 1002.13 1002.41 1002.69 1002.97 1003.25 1003.55 1003.86 1004.19 1004.53 1004.88 1005.22 1005.56 1005.88 1006.17 1006.44 1006.67 1006.89 1007.08 1007.25 1007.41
999.28 998.95 998.62 998.32 998.06 997.86 997.73 997.67 997.69 997.78 997.94 998.16 998.43 998.73 999.06 999.40 999.74 1000.08 1000.41 1000.72 1001.02 1001.30 1001.57 1001.83 1002.07 1002.32 1002.57 1002.82 1003.08 1003.34 1003.61 1003.88 1004.14 1004.40 1004.64 1004.87 1005.07 1005.26 1005.42 1005.58 1005.72 1005.85 1005.98
Thickness
5675 5673 5671 5669 5668 5666 5665 5664 5663 5661 5660 5659 5657 5656 5654 5652 5651 5648 5646 5644 5641 5639 5637 5635 5634 5632 5630 5627 5625 5623 5621 5620 5617 5616 5616 5617 5617 5616 5616 5615 5615 5615 5615
5671 5668 5666 5664 5662 5661 5659 5659 5658 5656 5655 5654 5653 5651 5649 5648 5646 5644 5641 5639 5637 5635 5633 5631 5629 5628 5626 5624 5621 5620 5618 5616 5614 5612 5611 5611 5611 5611 5611 5610 5610 5610 5609
5666 5663 5661 5658 5657 5655 5654 5653 5652 5651 5649 5648 5647 5646 5644 5643 5641 5639 5637 5635 5633 5632 5630 5628 5626 5623 5621 5619 5617 5616 5614 5613 5610 5608 5606 5605 5605 5605 5605 5604 5604 5604 5604
5661 5658 5656 5654 5652 5651 5649 5648 5647 5646 5644 5643 5642 5641 5640 5638 5636 5634 5632 5630 5629 5627 5626 5624 5622 5620 5618 5616 5614 5612 5610 5608 5605 5603 5601 5599 5599 5599 5598 5597 5597 5597 5598
5656 5653 5651 5650 5648 5646 5644 5643 5642 5641 5640 5638 5637 5635 5634 5633 5632 5629 5627 5626 5623 5622 5620 5619 5618 5617 5615 5613 5612 5609 5607 5604 5601 5598 5596 5594 5593 5592 5592 5591 5591 5590 5591
5651 5648 5647 5645 5643 5641 5639 5638 5637 5635 5634 5632 5631 5629 5628 5628 5628 5626 5623 5621 5619 5617 5615 5614 5613 5612 5611 5610 5608 5607 5605 5601 5597 5594 5592 5590 5590 5589 5587 5586 5584 5583 5584
5646 5644 5641 5639 5637 5636 5635 5632 5631 5629 5628 5626 5625 5624 5622 5622 5622 5621 5619 5616 5614 5612 5611 5609 5609 5609 5606 5604 5603 5602 5600 5598 5597 5594 5590 5589 5587 5586 5583 5580 5579 5579 5579
5640 5637 5636 5634 5632 5630 5628 5626 5625 5623 5622 5620 5619 5617 5616 5616 5616 5615 5613 5610 5608 5607 5606 5605 5603 5602 5601 5599 5597 5595 5593 5592 5592 5590 5589 5588 5586 5584 5581 5579 5577 5574 5573
5632 5631 5629 5628 5626 5624 5622 5620 5619 5616 5615 5614 5612 5611 5610 5610 5610 5609 5607 5604 5602 5600 5599 5599 5597 5596 5596 5594 5591 5588 5586 5586 5586 5585 5584 5582 5581 5579 5576 5572 5569 5567 5566
5626 5625 5623 5622 5620 5618 5616 5614 5612 5610 5609 5607 5605 5604 5604 5603 5603 5602 5601 5597 5595 5593 5592 5591 5591 5590 5589 5587 5584 5582 5580 5580 5579 5578 5576 5575 5574 5572 5571 5568 5566 5562 5560
5620 5618 5616 5615 5613 5611 5609 5607 5605 5603 5601 5599 5598 5597 5596 5596 5596 5595 5594 5591 5589 5586 5585 5584 5584 5583 5582 5580 5578 5576 5576 5574 5571 5570 5568 5568 5567 5566 5564 5563 5561 5559 5556
5612 5610 5608 5607 5606 5605 5601 5599 5597 5595 5593 5591 5589 5589 5588 5588 5587 5587 5586 5585 5583 5580 5579 5578 5577 5576 5575 5573 5571 5570 5569 5567 5563 5561 5560 5559 5559 5558 5558 5556 5555 5553 5553
5603 5601 5600 5598 5597 5596 5593 5591 5589 5587 5585 5583 5581 5580 5580 5580 5579 5579 5579 5577 5576 5573 5573 5572 5570 5569 5567 5565 5564 5563 5560 5558 5556 5554 5553 5553 5552 5552 5550 5548 5546 5545 5544
5595 5593 5592 5589 5588 5587 5586 5584 5581 5579 5577 5576 5575 5573 5572 5571 5571 5570 5570 5569 5567 5566 5564 5563 5562 5560 5558 5557 5555 5554 5552 5551 5549 5548 5547 5545 5544 5542 5541 5539 5537 5535 5534
5587 5585 5583 5581 5580 5578 5578 5576 5575 5575 5573 5571 5570 5568 5565 5564 5565 5565 5562 5561 5559 5558 5555 5553 5551 5549 5548 5546 5545 5544 5543 5542 5541 5540 5538 5537 5535 5534 5533 5531 5529 5527 5525
5577 5575 5574 5572 5571 5569 5568 5567 5567 5567 5567 5565 5564 5562 5561 5560 5559 5557 5556 5554 5552 5549 5545 5543 5542 5541 5540 5539 5537 5536 5534 5534 5533 5532 5530 5529 5528 5527 5525 5523 5521 5520 5519
5569 5567 5565 5564 5562 5560 5559 5557 5557 5557 5557 5557 5556 5555 5554 5553 5551 5549 5547 5545 5542 5539 5536 5535 5534 5533 5532 5531 5530 5528 5527 5526 5525 5524 5523 5521 5520 5519 5517 5516 5514 5512 5511
5561 5559 5557 5555 5554 5552 5550 5549 5547 5546 5545 5545 5546 5546 5545 5544 5542 5540 5538 5534 5531 5529 5528 5527 5526 5525 5523 5522 5521 5520 5519 5518 5517 5516 5515 5514 5512 5510 5509 5508 5506 5505 5503
5552 5550 5549 5547 5545 5543 5541 5539 5538 5537 5536 5535 5534 5534 5534 5533 5532 5530 5528 5525 5524 5522 5520 5519 5518 5517 5515 5514 5513 5512 5511 5510 5509 5508 5507 5505 5504 5502 5501 5500 5499 5497 5495
5544 5544 5541 5538 5536 5533 5531 5530 5528 5527 5526 5525 5524 5523 5522 5521 5520 5519 5517 5516 5515 5514 5513 5511 5510 5508 5507 5505 5504 5503 5502 5501 5500 5499 5499 5497 5496 5495 5494 5493 5491 5490 5488
5534 5533 5532 5529 5526 5525 5523 5521 5520 5518 5516 5515 5515 5514 5513 5511 5510 5510 5509 5507 5506 5505 5504 5502 5500 5499 5498 5497 5495 5494 5494 5493 5492 5492 5491 5489 5488 5487 5486 5485 5483 5482 5480
5524 5522 5520 5519 5517 5515 5514 5512 5510 5509 5508 5506 5505 5504 5504 5501 5500 5500 5499 5499 5498 5497 5496 5494 5493 5492 5491 5489 5487 5486 5486 5486 5485 5484 5483 5482 5480 5479 5478 5476 5475 5474 5472
5514 5512 5510 5508 5507 5506 5504 5502 5500 5499 5498 5497 5496 5494 5493 5492 5491 5490 5490 5490 5489 5488 5487 5485 5484 5484 5483 5482 5480 5479 5478 5479 5478 5477 5476 5475 5473 5472 5470 5469 5467 5465 5464
5503 5501 5499 5497 5496 5494 5493 5491 5490 5489 5488 5487 5486 5485 5483 5482 5482 5482 5482 5481 5480 5480 5479 5478 5477 5476 5475 5473 5473 5472 5472 5472 5471 5470 5469 5467 5466 5465 5463 5461 5460 5458 5457
5492 5490 5489 5487 5485 5484 5483 5481 5480 5479 5478 5477 5476 5475 5474 5473 5472 5472 5472 5472 5471 5471 5470 5468 5468 5467 5467 5466 5466 5465 5465 5464 5463 5462 5461 5460 5459 5458 5456 5454 5453 5451 5449
5481 5480 5478 5476 5474 5473 5472 5471 5470 5469 5468 5467 5466 5465 5464 5463 5463 5463 5462 5462 5461 5461 5461 5460 5459 5459 5459 5459 5458 5458 5457 5456 5456 5455 5453 5452 5451 5450 5448 5447 5445 5444 5442